[[{"header":{"parameterUnit":"m.s-1","parameterCategory":1,"la1":30.2991,"la2":30.254,"lo1":-89.0895,"lo2":-89.0444,"dx":0.0017,"dy":0.0017,"nx":28,"ny":28,"refTime":"2022-11-16T15:00:00:Z","depth":0,"parameterNumber":2,"parameterNumberName":"U-component_of_WINDS"},"data":[0,0,0,0,0,0,0,0,0,0,0,0,0,0,0,0,0,0,0,0,0,0,0,0,0,0,0,0,0,0,0,0,0,0,0,0,0,0,0,0,0,0,0,0,0,0,0,0,0,0,0,0,0,0,0,0,0,0,0.9443,0.9443,0,0.9379,0.9378,0.9378,0.937,0.9371,0.9372,0.9372,0.9302,0.9299,0.9297,0,0,0,0,0,0,0,0,0,0,0,0,0,0.9556,0.9554,0.9443,0.9443,0.9442,0.9379,0.9378,0.9377,0.937,0.9371,0.9372,0.9372,0.9303,0.93,0.9297,0,0,0,0,0,0,0,0,0,0,0,0,0,0.9501,0.9554,0.9444,0.9431,0.9429,0.9379,0.9378,0.9377,0.937,0.9371,0.9372,0.9373,0.9304,0.93,0.9296,0.9254,0,0,0.9285,0.9283,0,0,0,0,0,0,0,0,0.9504,0.9497,0.9433,0.9432,0.943,0.9384,0.9392,0.9336,0.937,0.9392,0.9372,0.9373,0.9328,0.9322,0.9308,0.925,0.9247,0.9285,0.9282,0.9281,0.928,0,0,0,0,0,0,0,0.9508,0.95,0.9418,0.9433,0.943,0.9427,0.942,0.9381,0.9355,0.939,0.939,0.9382,0.9327,0.9312,0.9306,0.9246,0.9285,0.9281,0.9279,0.9278,0.915,0.9148,0,0,0,0,0,0,0.9515,0.9503,0.942,0.9416,0.947,0.9424,0.9417,0.9397,0.9356,0.935,0.9382,0.9382,0.9317,0.9311,0.9304,0.925,0.9281,0.9277,0.9275,0.9151,0.9149,0.9148,0,0,0,0,0,0,0.9517,0.9507,0.9422,0.9459,0.9448,0.9421,0.94,0.9396,0.938,0.9349,0.9344,0.9371,0.9318,0.9309,0.9266,0.9247,0.9276,0.9272,0.9152,0.915,0.9149,0.9142,0,0,0,0,0,0,0.952,0.9508,0.9493,0.9459,0.9446,0.9387,0.9399,0.9394,0.9374,0.9374,0.9338,0.9332,0.9318,0.9272,0.9263,0.9243,0.9269,0.9154,0.9151,0.9149,0.9144,0.9141,0.9138,0,0,0,0,0,0.9525,0.9493,0.9492,0.9482,0.9426,0.9386,0.9379,0.9364,0.9373,0.9356,0.9336,0.9334,0.9252,0.9268,0.9257,0.9236,0.9155,0.9152,0.9149,0.9145,0.9141,0.9138,0,0,0,0,0,0,0.9523,0.9488,0.9487,0.9443,0.9418,0.9385,0.9363,0.936,0.933,0.9332,0.9314,0.9305,0.9263,0.9246,0.9264,0.9192,0.9204,0.9199,0.9204,0.92,0.9197,0.9201,0.9266,0,0,0,0,0,0.9518,0.949,0.946,0.9425,0.9412,0.939,0.9372,0.9363,0.9335,0.9324,0.9301,0.9273,0.9241,0.922,0.9189,0.9143,0.9133,0.9123,0.912,0.9117,0.9112,0.9085,0.9079,0.9139,0.9139,0.9139,0,0,0.9507,0.9484,0.9467,0.9424,0.9403,0.9372,0.9381,0.9348,0.9325,0.9319,0.9277,0.9259,0.9227,0.9182,0.9161,0.9166,0.9094,0.9114,0.9112,0.9108,0.9081,0.9076,0.9071,0.9138,0.9138,0.9138,0,0,0.947,0.9451,0.9418,0.9398,0.9367,0.9353,0.9345,0.9313,0.9301,0.926,0.9254,0.9226,0.9171,0.9148,0.9129,0.9085,0.9081,0.9075,0.9057,0.9031,0.9026,0.9022,0.9004,0.8998,0.9071,0.9071,0.9071,0,0.9458,0.9414,0.9402,0.9369,0.935,0.9345,0.9311,0.9292,0.9252,0.9238,0.9245,0.9176,0.9154,0.9103,0.9092,0.9078,0.9067,0.9078,0.9028,0.9024,0.9019,0.9002,0.8996,0.9071,0.9071,0.9071,0.9071,0,0.9401,0.937,0.9347,0.931,0.9288,0.9256,0.9238,0.9217,0.9211,0.9195,0.9152,0.9126,0.9089,0.9077,0.907,0.9024,0.9028,0.9032,0.9043,0.9013,0.8996,0.899,0.907,0.907,0.907,0.907,0,0,0.9358,0.9317,0.9308,0.9291,0.9257,0.9232,0.9199,0.9165,0.9146,0.9119,0.909,0.9044,0.9048,0.9026,0.9017,0.8994,0.8958,0.9,0.8999,0.8991,0.8905,0.89,0.8893,0.8957,0.8956,0.8955,0.8907,0,0.9316,0.9257,0.9246,0.9195,0.9165,0.9161,0.9132,0.9107,0.9092,0.9064,0.9047,0.9015,0.9023,0.901,0.8987,0.8968,0.894,0.8971,0.8927,0.8925,0.8932,0.8884,0.8879,0.8835,0.89,0.8899,0.8898,0,0.9257,0.923,0.9176,0.9146,0.9133,0.9108,0.9074,0.9048,0.902,0.9011,0.8988,0.8981,0.8945,0.8961,0.891,0.8931,0.8913,0.89,0.8898,0.8891,0.8908,0.8873,0.882,0.8813,0.8888,0.8889,0.889,0,0.9229,0.9179,0.914,0.9126,0.9091,0.9072,0.9057,0.903,0.901,0.8981,0.8967,0.8934,0.8916,0.889,0.8874,0.8887,0.8823,0.8838,0.8813,0.8813,0.8797,0.8797,0.8738,0.879,0.879,0.879,0.879,0,0.9181,0.9147,0.9127,0.9102,0.9064,0.9052,0.9014,0.8999,0.8975,0.8946,0.8942,0.8915,0.8897,0.8867,0.8855,0.8813,0.8805,0.8795,0.8792,0.8794,0.8795,0.8779,0.8781,0.8788,0.8789,0.8789,0.8789,0,0.9141,0.9127,0.9083,0.9054,0.9046,0.9019,0.8994,0.8969,0.8956,0.8919,0.891,0.8888,0.8852,0.8835,0.8791,0.8783,0.8735,0.8735,0.8744,0.8742,0.8717,0.8719,0.8643,0.8631,0.8694,0.8694,0.8693,0,0.911,0.9084,0.9053,0.9034,0.9018,0.8988,0.8968,0.8955,0.8934,0.89,0.8879,0.8845,0.8815,0.8759,0.8738,0.8704,0.8701,0.8677,0.8696,0.8698,0.8697,0.8698,0.8694,0.8673,0.8672,0.8671,0.8671,0,0.9055,0.9049,0.9021,0.899,0.8966,0.8941,0.8916,0.8901,0.8884,0.886,0.8825,0.8803,0.8759,0.8723,0.8688,0.867,0.8666,0.8666,0.8658,0.8658,0.8663,0.8658,0.8732,0.8667,0.8667,0.8668,0.8668,0.8668,0.9016,0.8993,0.8967,0.8935,0.8916,0.8893,0.8868,0.8852,0.8823,0.8786,0.8781,0.8743,0.8715,0.8668,0.865,0.8619,0.8624,0.8613,0.8609,0.8606,0.8603,0.8672,0.8613,0.8613,0.8613,0.8613,0.8613,0,0.8958,0.8942,0.8914,0.888,0.8855,0.8857,0.883,0.8808,0.8775,0.875,0.8722,0.8681,0.8647,0.8624,0.8589,0.8569,0.8566,0.856,0.8559,0.8555,0.8602,0.8611,0.8562,0.8562,0.8562,0.8562,0.8562,0.8562,0.8925,0.8885,0.8877,0.8826,0.881,0.8774,0.8758,0.8736,0.8716,0.8671,0.8643,0.8629,0.8605,0.8568,0.8537,0.8531,0.8517,0.8509,0.8503,0.8547,0.8552,0.8557,0.8565,0.8507,0.8507,0.8458,0.8458,0.8458]},{"header":{"parameterUnit":"m.s-1","parameterCategory":1,"la1":30.2991,"la2":30.254,"lo1":-89.0895,"lo2":-89.0444,"dx":0.0017,"dy":0.0017,"nx":28,"ny":28,"refTime":"2022-11-16T15:00:00:Z","depth":0,"parameterNumber":3,"parameterNumberName":"V-component_of_WINDS"},"data":[0,0,0,0,0,0,0,0,0,0,0,0,0,0,0,0,0,0,0,0,0,0,0,0,0,0,0,0,0,0,0,0,0,0,0,0,0,0,0,0,0,0,0,0,0,0,0,0,0,0,0,0,0,0,0,0,0,0,-5.955,-5.9552,0,-5.9752,-5.9755,-5.9757,-5.9682,-5.9677,-5.9672,-5.9668,-5.9873,-5.9882,-5.9892,0,0,0,0,0,0,0,0,0,0,0,0,0,-5.9094,-5.9103,-5.9549,-5.9552,-5.9554,-5.9752,-5.9755,-5.9758,-5.9682,-5.9677,-5.9671,-5.9666,-5.987,-5.9881,-5.9893,0,0,0,0,0,0,0,0,0,0,0,0,0,-5.9294,-5.9106,-5.9549,-5.9541,-5.9542,-5.9751,-5.9755,-5.9758,-5.9684,-5.9677,-5.967,-5.9663,-5.9866,-5.988,-5.9895,-6.0123,0,0,-5.9939,-5.9946,0,0,0,0,0,0,0,0,-5.9282,-5.931,-5.9539,-5.9542,-5.9544,-5.9685,-5.9669,-5.988,-5.9685,-5.963,-5.9668,-5.966,-5.9816,-5.9834,-5.9887,-6.0133,-6.0141,-5.9941,-5.9949,-5.9956,-5.996,0,0,0,0,0,0,0,-5.9269,-5.9301,-5.9629,-5.9543,-5.9545,-5.9526,-5.9547,-5.9709,-5.9759,-5.9634,-5.9629,-5.9654,-5.9815,-5.9873,-5.9891,-6.0144,-5.994,-5.9953,-5.9962,-5.9968,-6.0587,-6.0595,0,0,0,0,0,0,-5.9254,-5.929,-5.9623,-5.9636,-5.9393,-5.954,-5.9563,-5.9646,-5.9757,-5.9767,-5.966,-5.965,-5.9852,-5.9874,-5.9898,-6.0174,-5.9956,-5.9969,-5.9978,-6.058,-6.0589,-6.0597,0,0,0,0,0,0,-5.9245,-5.9285,-5.9615,-5.9462,-5.9502,-5.9555,-5.9649,-5.9654,-5.9712,-5.9777,-5.9785,-5.971,-5.9847,-5.9878,-6.0068,-6.018,-5.9976,-5.9989,-6.0571,-6.0583,-6.0593,-6.0726,0,0,0,0,0,0,-5.9232,-5.9282,-5.937,-5.9464,-5.9511,-5.9783,-5.9656,-5.9663,-5.9737,-5.9726,-5.9826,-5.9836,-5.9844,-6.0047,-6.0083,-6.0196,-6.0001,-6.0561,-6.0576,-6.059,-6.0712,-6.074,-6.0765,0,0,0,0,0,-5.9216,-5.9399,-5.9375,-5.9416,-5.9622,-5.9789,-5.9816,-5.9823,-5.9747,-5.9835,-5.9877,-5.9832,-6.0161,-6.0067,-6.0106,-6.0226,-6.0554,-6.0572,-6.0588,-6.07,-6.0735,-6.0764,0,0,0,0,0,0,-5.9315,-5.9411,-5.9386,-5.9604,-5.9689,-5.9776,-5.9888,-5.9859,-5.9967,-5.9952,-5.9955,-5.9978,-6.0174,-6.0219,-6.0112,-6.0453,-6.0346,-6.0372,-6.0417,-6.0451,-6.0477,-6.0463,-6.0013,0,0,0,0,0,-5.9363,-5.9491,-5.9567,-5.9753,-5.9797,-5.9836,-5.9908,-5.9906,-5.9994,-6.0029,-6.0085,-6.0171,-6.0293,-6.0374,-6.0491,-6.0717,-6.0738,-6.0819,-6.0846,-6.0867,-6.089,-6.1013,-6.105,-6.0654,-6.0654,-6.0654,0,0,-5.9462,-5.953,-5.9611,-5.9775,-5.984,-5.9973,-5.9866,-6.0011,-6.0109,-6.0051,-6.0235,-6.0278,-6.0374,-6.0584,-6.0679,-6.0627,-6.1004,-6.0889,-6.0906,-6.0917,-6.1035,-6.1072,-6.1106,-6.0666,-6.0664,-6.0662,0,0,-5.9711,-5.9775,-5.9937,-6.0005,-6.0106,-6.013,-6.0169,-6.0261,-6.0288,-6.0472,-6.0432,-6.0548,-6.0759,-6.0829,-6.0893,-6.1168,-6.1131,-6.1205,-6.1345,-6.1465,-6.1496,-6.1524,-6.1623,-6.1658,-6.1227,-6.1228,-6.1228,0,-5.9821,-6.002,-6.0023,-6.0172,-6.0245,-6.0199,-6.0363,-6.0428,-6.0562,-6.0613,-6.0553,-6.0818,-6.0879,-6.1105,-6.1172,-6.1224,-6.1268,-6.1194,-6.1491,-6.1519,-6.1545,-6.1639,-6.1676,-6.1236,-6.1235,-6.1234,-6.1233,0,-6.0151,-6.0289,-6.0408,-6.0539,-6.0625,-6.078,-6.0807,-6.0893,-6.0883,-6.0914,-6.1102,-6.1174,-6.1304,-6.1357,-6.1348,-6.1582,-6.1547,-6.149,-6.1382,-6.1592,-6.168,-6.1716,-6.1248,-6.1245,-6.1243,-6.1241,0,0,-6.0469,-6.06,-6.0644,-6.0703,-6.0811,-6.0917,-6.107,-6.1198,-6.1273,-6.1366,-6.1494,-6.1673,-6.1621,-6.1693,-6.1692,-6.1797,-6.2011,-6.1727,-6.1729,-6.1778,-6.2273,-6.2316,-6.2358,-6.1986,-6.1993,-6.1999,-6.2265,0,-6.0727,-6.0997,-6.1004,-6.125,-6.1378,-6.1336,-6.1469,-6.1549,-6.1581,-6.1693,-6.1728,-6.1856,-6.1777,-6.182,-6.1922,-6.1963,-6.211,-6.1944,-6.2105,-6.2111,-6.2084,-6.2404,-6.2451,-6.2699,-6.23,-6.2305,-6.231,0,-6.1065,-6.117,-6.1429,-6.1519,-6.1572,-6.1692,-6.181,-6.1918,-6.2008,-6.2023,-6.2104,-6.2087,-6.2242,-6.2129,-6.2342,-6.2229,-6.2295,-6.2325,-6.2334,-6.2351,-6.2224,-6.243,-6.2778,-6.2816,-6.2364,-6.236,-6.2356,0,-6.1272,-6.1478,-6.166,-6.1712,-6.182,-6.1905,-6.1954,-6.2037,-6.2114,-6.2216,-6.2266,-6.2385,-6.2451,-6.2543,-6.2558,-6.2474,-6.2772,-6.266,-6.279,-6.279,-6.2856,-6.2851,-6.322,-6.2896,-6.2896,-6.2895,-6.2894,0,-6.156,-6.1721,-6.1755,-6.1867,-6.2045,-6.2051,-6.2227,-6.2269,-6.2343,-6.2462,-6.2432,-6.2544,-6.2557,-6.2672,-6.2684,-6.2859,-6.2889,-6.2906,-6.2907,-6.291,-6.2908,-6.2954,-6.2938,-6.2905,-6.2903,-6.2901,-6.2899,0,-6.1823,-6.1852,-6.2048,-6.2135,-6.216,-6.2288,-6.2362,-6.2468,-6.2497,-6.2648,-6.2683,-6.2728,-6.2862,-6.2886,-6.3044,-6.3052,-6.3262,-6.3245,-6.3232,-6.3231,-6.3359,-6.3347,-6.3772,-6.3828,-6.3466,-6.3469,-6.3472,0,-6.2006,-6.2128,-6.2229,-6.2307,-6.236,-6.2486,-6.2564,-6.2574,-6.2657,-6.2768,-6.2862,-6.2992,-6.3098,-6.3314,-6.336,-6.3481,-6.3467,-6.3608,-6.3485,-6.3484,-6.3471,-6.3464,-6.3477,-6.3632,-6.3636,-6.3639,-6.3641,0,-6.2327,-6.2336,-6.245,-6.2571,-6.2665,-6.276,-6.285,-6.2915,-6.2937,-6.3031,-6.3168,-6.325,-6.3412,-6.3542,-6.3662,-6.3711,-6.3681,-6.3679,-6.3716,-6.372,-6.3708,-6.3717,-6.3298,-6.367,-6.3667,-6.3665,-6.3663,-6.3662,-6.2557,-6.2664,-6.2752,-6.288,-6.2949,-6.3033,-6.3138,-6.318,-6.3295,-6.3428,-6.3426,-6.3577,-6.3662,-6.382,-6.3877,-6.3994,-6.3949,-6.4002,-6.4016,-6.4029,-6.4042,-6.3688,-6.4016,-6.4015,-6.4014,-6.4014,-6.4013,0,-6.2878,-6.2932,-6.305,-6.3177,-6.3278,-6.3241,-6.3338,-6.3425,-6.3558,-6.3641,-6.3746,-6.3903,-6.403,-6.4086,-6.421,-6.4293,-6.4282,-6.4325,-6.432,-6.4332,-6.4074,-6.4031,-6.4332,-6.4332,-6.4332,-6.4332,-6.4332,-6.4332,-6.3057,-6.3237,-6.3256,-6.3469,-6.3521,-6.367,-6.3728,-6.3806,-6.3872,-6.405,-6.4155,-6.4191,-6.4263,-6.4392,-6.4506,-6.4519,-6.4566,-6.4616,-6.4623,-6.4382,-6.435,-6.4319,-6.4278,-6.4626,-6.4627,-6.4871,-6.4873,-6.4875]}]]